Theta_e
296 298 299 300 304 305 306 308 311 337 345 345 344 344 344 344 345 344 342 341 341 341 339 337 334 331 330 332 331 330 330 328
294 296 296 297 300 300 304 305 308 312 338 338 338 337 342 341 344 345 342 342 342 341 339 336 333 330 330 331 331 328 327 326
292 294 294 294 296 297 300 303 306 311 317 335 338 337 341 344 343 345 344 342 342 341 338 336 333 330 330 329 330 328 327 327
291 292 292 293 293 294 297 301 305 308 316 322 332 339 339 339 340 343 343 342 342 341 339 337 334 331 330 328 330 329 326 327
291 292 292 292 292 294 295 300 303 308 310 317 319 326 331 334 336 341 343 343 342 341 339 337 335 333 330 330 331 330 328 324
290 291 293 293 293 293 294 297 301 304 306 310 313 317 325 334 336 338 342 342 341 340 339 337 335 333 331 331 331 330 328 326
291 292 293 293 294 293 293 294 297 300 303 306 310 315 324 329 332 334 336 340 340 340 340 337 336 334 331 331 331 330 328 327
289 290 290 291 292 291 292 293 294 298 300 303 308 310 317 319 328 331 330 332 337 337 339 337 335 334 332 331 331 330 327 326
289 290 290 291 292 291 290 291 292 295 297 300 303 305 313 313 319 327 322 331 334 334 338 337 337 335 332 331 330 330 328 327
289 290 291 291 292 291 290 291 292 294 295 298 299 300 303 303 306 319 332 333 335 330 331 337 336 335 333 331 330 329 327 325
290 291 291 291 293 292 291 291 291 292 293 294 296 298 300 301 301 304 308 311 314 329 327 330 332 336 335 331 330 329 326 325
289 291 292 291 292 292 290 291 292 292 292 292 292 294 296 298 297 299 302 304 305 312 324 328 332 336 336 332 330 328 325 324
289 291 291 291 291 291 290 291 292 292 293 292 292 293 294 294 294 296 298 300 300 302 307 304 306 308 331 332 330 328 325 323
289 290 290 290 290 292 290 291 291 292 293 293 292 292 292 292 292 293 294 295 296 297 299 298 298 300 299 318 330 328 326 325
289 289 289 290 290 291 290 291 291 292 292 292 293 291 292 292 293 292 292 293 293 294 295 297 297 296 296 297 303 323 326 325
288 288 289 290 290 290 291 291 291 292 291 292 292 293 293 292 292 292 292 291 291 292 293 294 295 293 293 292 295 306 313 326
288 289 289 289 289 290 291 291 291 291 290 291 291 292 293 292 293 292 292 292 291 290 290 291 292 293 291 291 292 300 302 303
287 289 289 289 289 290 290 291 291 291 290 291 291 291 291 291 292 292 291 292 292 291 290 291 291 292 291 291 291 297 298 299
288 288 289 289 289 290 291 291 291 290 290 291 291 290 290 290 290 291 290 291 292 291 291 292 292 292 291 291 290 293 296 296
Wind_Speed
27 28 25 26 24 26 26 23 24 16 15 15 13 13 13 13 14 14 22 17 22 18 15 16 16 13 13 11 13 8 9 8
25 27 26 25 25 26 25 24 25 18 14 11 11 14 12 12 13 19 22 20 22 20 15 17 17 16 17 16 12 14 8 7
30 30 33 26 24 24 24 24 19 19 15 10 12 14 14 16 15 18 22 22 21 19 19 17 19 15 17 17 15 11 7 10
32 32 30 27 29 27 24 25 23 16 20 7 9 13 13 11 15 15 19 24 22 23 22 18 19 18 15 19 15 19 15 12
24 27 30 27 27 26 22 23 23 19 19 14 8 12 13 15 13 15 17 26 25 24 22 22 20 16 19 18 15 16 14 16
24 26 26 26 25 22 23 23 23 22 22 15 10 11 19 9 13 20 19 21 26 26 23 23 19 15 19 20 19 18 15 15
22 22 23 21 21 23 23 25 22 23 20 17 13 11 18 16 16 13 16 17 18 25 24 21 20 18 18 17 19 20 18 17
20 22 22 23 23 24 23 27 24 23 20 17 13 13 8 12 15 13 9 11 19 21 23 19 18 21 20 19 18 19 18 16
19 21 21 23 22 23 23 25 23 24 21 18 18 17 7 7 15 16 13 14 8 11 18 19 21 22 19 19 15 15 17 15
17 19 19 22 22 23 23 23 23 22 21 17 18 17 18 13 18 12 9 16 17 17 19 18 19 21 21 19 16 18 17 17
13 14 18 19 21 19 22 22 22 22 20 19 17 17 17 14 21 20 14 10 10 15 26 20 17 17 20 20 17 18 18 16
10 10 12 15 16 18 19 22 22 20 20 22 23 19 19 13 19 16 16 15 17 12 5 8 14 20 23 22 22 22 22 19
9 7 11 14 15 14 19 19 19 20 19 21 14 20 18 18 17 15 21 16 17 17 14 13 13 11 19 24 23 21 23 22
8 6 8 10 15 13 16 16 18 18 16 13 20 18 19 21 19 19 19 20 20 21 19 17 17 16 19 12 20 20 21 21
8 8 9 7 11 12 14 16 17 17 17 18 15 18 21 14 12 13 16 15 17 19 17 16 16 12 14 16 16 9 20 21
12 9 9 8 11 13 11 13 17 17 17 16 16 16 15 16 17 16 17 16 14 13 13 12 12 16 14 20 19 12 6 17
13 10 9 9 11 12 12 10 11 14 14 15 17 17 14 15 12 13 15 14 12 12 13 13 14 10 18 22 16 11 13 9
11 13 7 6 8 9 10 12 6 13 14 12 14 15 14 14 15 17 17 14 13 14 13 10 11 11 19 23 24 12 11 11
7 8 7 5 6 10 7 11 12 13 14 15 13 14 13 12 15 15 13 11 12 11 11 10 9 9 15 18 18 15 12 13
Wind_Direction
351 352 357 355 357 356 351 342 355 291 208 195 193 192 190 187 182 186 186 184 182 173 174 169 167 172 173 179 182 174 174 157
352 357 357 355 357 355 348 338 340 332 266 211 203 206 182 188 191 185 187 187 184 178 176 167 171 175 179 179 179 167 162 151
357 357 351 358 352 347 339 336 337 329 325 276 205 204 206 183 185 184 187 188 187 183 178 174 174 173 180 175 180 172 163 170
357 354 351 348 350 349 337 332 328 329 321 316 304 206 202 208 189 183 189 189 185 186 182 181 179 173 178 178 180 178 171 178
355 351 349 352 346 342 341 334 334 334 321 315 301 291 207 207 209 191 188 189 186 187 181 184 187 180 180 179 181 182 173 176
355 354 345 341 344 343 344 343 340 340 331 337 337 338 287 216 206 198 190 190 186 188 183 181 185 188 185 181 179 182 180 177
355 353 349 341 342 345 344 345 346 345 338 348 349 314 299 254 226 216 204 201 186 186 184 183 184 186 185 185 183 183 183 182
348 353 352 347 348 347 347 349 343 347 341 357 352 344 314 334 271 214 236 225 185 194 182 181 186 190 187 182 186 186 183 186
353 351 350 349 349 350 347 346 344 347 350 10 10 359 327 357 331 244 220 231 218 215 193 190 190 190 188 185 186 189 185 188
343 342 349 349 349 352 350 347 344 351 350 10 11 6 8 11 2 313 217 211 188 180 227 209 205 188 188 184 183 186 189 188
337 346 351 351 348 349 345 345 352 353 353 18 16 7 22 11 35 345 32 8 8 218 211 181 236 197 191 186 188 192 187 194
330 342 349 351 347 349 350 350 352 356 1 12 19 16 25 13 55 351 17 22 14 352 219 177 194 214 194 189 189 190 191 192
322 340 347 353 347 352 350 354 352 353 3 18 348 34 15 22 30 10 25 24 24 5 51 24 27 45 243 188 195 192 189 192
326 334 353 354 357 357 354 352 350 357 358 357 11 17 24 24 20 29 23 9 23 24 35 31 32 27 28 306 194 195 192 198
341 352 356 10 360 359 356 355 360 355 359 9 10 16 22 23 360 28 33 23 25 37 21 30 35 39 43 355 334 224 192 194
355 353 349 360 4 3 1 357 359 360 2 5 5 23 16 18 6 18 33 20 19 30 36 33 27 35 15 354 348 334 3 197
352 348 355 3 5 3 358 360 9 354 360 8 4 17 17 19 354 20 26 17 20 17 24 22 21 23 8 12 3 350 32 9
355 347 355 357 354 352 356 353 350 4 360 5 13 7 15 11 1 14 16 13 6 7 15 13 20 14 3 15 9 13 7 39
349 344 347 5 348 354 337 360 359 5 2 359 10 11 6 8 14 13 7 359 11 5 0 360 14 10 358 20 18 8 8 11